Lexington Weather

Lexington, Massachusetts, USA

31°F
1/23/2020 10:06am 
  • Lexington Conditions: Clear
  • Temperature: 30.9°F / -0.6°CWarmer 4.3°F than last hour.
  • Dew Point: 20.5°FIncreased 1.5°Fsince last hour.
  • Relative Humidity: 65%Decreased 8.0% since last hour.
  • Wind: Calm, 10-min avg: Calm, gust: 1 mph
  • Barometer: 30.34 in Steady
  • Visibility: 10 miles
  • Snow Today: 0.0 in
  •   

Regional Weather Roundup
for Boston / Norton, MA

        
000
ASUS41 KBOX 211810
RWRBOX

REGIONAL WEATHER ROUNDUP
NATIONAL WEATHER SERVICE BOSTON/NORTON MA
100 PM EST TUE JAN 21 2020

NOTE:  "FAIR" INDICATES FEW OR NO CLOUDS BELOW 12,000 FEET WITH NO 
SIGNIFICANT WEATHER AND/OR OBSTRUCTIONS TO VISIBILITY.

MAZALL-211900-
EASTERN MASSACHUSETTS
  
CITY           SKY/WX    TMP DP  RH WIND       PRES   REMARKS
BOSTON         PTSUNNY   26   2  35 NW9       30.40F WCI  17          
6HR MIN TEMP:  18; 6HR MAX TEMP:  27;                                

BEVERLY        FAIR      24   5  44 CALM      30.38F                  
LAWRENCE       FAIR      22   1  40 CALM      30.40F                  
BEDFORD        FAIR      24   0  35 N8        30.38F WCI  15          
BLUE HILL        N/A     21   1  41 NW9       30.34S WCI  11          
NORWOOD        FAIR      27   0  31 VRB5      30.40S WCI  22          
MARSHFIELD     FAIR      27   7  43 VRB6G13   30.38S WCI  20          
PLYMOUTH       FAIR      27   5  39 NW8       30.37F WCI  19          
TAUNTON        FAIR      26   1  34 VRB6      30.38F WCI  19          
NEW BEDFORD    FAIR      28   1  31 VRB7      30.37S WCI  21          
$$

MAZALL-211900-
CAPE COD AND THE ISLANDS
  
CITY           SKY/WX    TMP DP  RH WIND       PRES   REMARKS
FALMOUTH       SUNNY     28   9  43 NE7       30.35F WCI  21          
HYANNIS        FAIR      30  18  60 N12       30.34F WCI  20          
CHATHAM        PTSUNNY   30  21  69 VRB6      30.35F WCI  24          
PROVINCETOWN   FAIR      29  21  72 NW10      30.37F WCI  20          
NANTUCKET      FAIR      33  22  63 N16       30.34F WCI  23          
MARTHAS VNYRD  FAIR      30  11  45 NW12      30.35F WCI  20          
$$
 
MAZALL-211900-
CENTRAL AND WESTERN MASSACHUSETTS
  
CITY           SKY/WX    TMP DP  RH WIND       PRES   REMARKS
WORCESTER      FAIR      23   1  38 NW9       30.31F WCI  13          
6HR MIN TEMP:  10; 6HR MAX TEMP:  23;                                

FITCHBURG      FAIR      26   0  32 CALM      30.36F                  
ORANGE         FAIR      25   0  33 N9        30.38F WCI  15          
SPRINGFIELD    PTSUNNY   24   0  34 N7        30.38F WCI  16          
WESTFIELD      FAIR      28   2  32 CALM      30.38F                  
NORTH ADAMS    FAIR      18   0  45 NW5       30.41F WCI  11          
PITTSFIELD     FAIR      18   0  45 W9        30.34S WCI   7          
$$
 
RIZALL-211900-
RHODE ISLAND
  
CITY           SKY/WX    TMP DP  RH WIND       PRES   REMARKS
PROVIDENCE     PTSUNNY   27   2  34 N15       30.38F WCI  15          
6HR MIN TEMP:  13; 6HR MAX TEMP:  28;                                

NEWPORT        FAIR      28   3  34 N9        30.37F WCI  19          
BLOCK ISLAND   FAIR      26   7  44 NW8       30.38F WCI  18          
SMITHFIELD     FAIR      23   5  46 N8        30.36F WCI  14          
WESTERLY       FAIR      32   1  26 N9        30.39F WCI  24          
$$
 
CTZALL-211900-
CONNECTICUT
  
CITY           SKY/WX    TMP DP  RH WIND       PRES   REMARKS
BRADLEY INTL   PTSUNNY   27   3  35 NE6       30.40F WCI  20          
6HR MIN TEMP:  13; 6HR MAX TEMP:  27;                                

HARTFORD       FAIR      27   3  35 N6        30.41F WCI  20          
BRIDGEPORT     FAIR      31   4  31 NW10      30.40F WCI  22          
DANBURY        FAIR      26   5  40 W9        30.39F WCI  17          
GROTON         FAIR      28   1  31 N8        30.39F WCI  20          
NEW HAVEN      FAIR      31   5  33 VRB5      30.40F WCI  26          
CHESTER        NOT AVBL                                               
MERIDEN        FAIR      28   5  37 W8        30.40F WCI  20          
WILLIMANTIC    FAIR      26   1  34 NW9       30.40F WCI  17          
OXFORD         FAIR      25   5  42 NW8       30.36F WCI  16          
$$

MEZ002-015-021-024-NHZ003-005-008-011-012-014-VTZ005-008-211900-
NORTHERN NEW ENGLAND
  
CITY           SKY/WX    TMP DP  RH WIND       PRES   REMARKS
PORTLAND ME    PTSUNNY   21   1  41 VRB3      30.39F                  
6HR MIN TEMP:  -4; 6HR MAX TEMP:  21;                                

BANGOR ME      FAIR      15   0  51 NW8       30.36F WCI   4          
CONCORD NH     FAIR      20   1  43 NW7       30.37F WCI  11          
MANCHESTER NH  PTSUNNY   24  -1  33 N7        30.36F WCI  16          
NASHUA NH      FAIR      24   2  38 NW8       30.38F WCI  15          
PORTSMOUTH NH  MOSUNNY   22   3  43 CALM      30.37F                  
JAFFREY NH     FAIR      22  -2  35 VRB7      30.31F WCI  13          
KEENE NH       FAIR      24   4  42 N8        30.39F WCI  15          
BURLINGTON VT  PTSUNNY   15   3  59 S6        30.41F WCI   6          
MT. WASHINGTON PTSUNNY   10  -4  52 NW20        N/A  WCI  -8          
$$

NYZ052-076-211900-
EASTERN NEW YORK
  
CITY           SKY/WX    TMP DP  RH WIND       PRES   REMARKS
ALBANY         PTSUNNY   21   1  41 N6        30.45F WCI  13          
6HR MIN TEMP:   7; 6HR MAX TEMP:  21;                                

NEW YORK CITY  FAIR      30   8  39 NW7       30.42F WCI  23          
6HR MIN TEMP:  21; 6HR MAX TEMP:  31;                                

$$
 
ANZALL-211900-
MARINE OBSERVATIONS
  
STATION/POSITION TIME  TEMP    WIND        PRES    VSBY  WAVE
                       AIR SEA DIR/SP/G                  HT/PER
                 (UTC) (F)     (DEG/KT/KT) (MB)    (MI)  (FT/S)
BOSTON BUOY      1750   23 42  320/  8/ 12 1028.7F         2/11
BUZZARDS BAY     1700   24     360/ 10/ 12 1029.1F
NANTUCKET SOUND  1740                        N/A           2/ 3
MASS BAY-STELLWA 1704   24 41  350/ 10/ 12 1027.3F  1 3/4  2/ 5
ISLE OF SHOALS   1800   22     330/  8/  9 1028.8F
S OF BLOCK IS    1800      45                N/A           3/ 4
$$

......................KEY.........................
  SKY/WX - SKY CONDITION/PRESENT WEATHER
  TMP    - TEMPERATURE IN FAHRENHEIT
  DWPT   - DEWPOINT IN FAHRENHEIT
  RH     - RELATIVE HUMIDITY IN PERCENT
  WIND   - DIRECTION AND SPEED IN MPH
  PRES   - MEAN SEA LEVEL PRESSURE IN INCHES OF HG
  WCI    - WIND CHILL INDEX
  VSB    - VISIBILITY IN MILES
  HX     - HEAT INDEX
  TC     - TEMPERATURE IN CELSIUS
  VRB    - VARIABLE WIND DIRECTION
  N/A    - NOT AVAILABLE
  
      

Other recent Regional Weather Roundups

Thu Jan 23, 9:10am

Thu Jan 23, 9:00am

Thu Jan 23, 8:10am

Thu Jan 23, 8:00am

Thu Jan 23, 7:10am

Thu Jan 23, 7:01am

Thu Jan 23, 6:10am

Thu Jan 23, 6:00am

Thu Jan 23, 5:10am

Thu Jan 23, 5:00am

Thu Jan 23, 4:10am

Thu Jan 23, 4:01am

Thu Jan 23, 3:10am

Thu Jan 23, 3:00am

Thu Jan 23, 2:10am

Thu Jan 23, 2:00am

Thu Jan 23, 1:10am

Thu Jan 23, 1:00am

Thu Jan 23, 12:10am

Thu Jan 23, 12:00am

Wed Jan 22, 11:10pm

Wed Jan 22, 11:01pm

Wed Jan 22, 10:10pm

Wed Jan 22, 10:00pm

Wed Jan 22, 9:10pm

Wed Jan 22, 9:00pm

Wed Jan 22, 8:10pm

Wed Jan 22, 8:01pm

Wed Jan 22, 7:10pm

Wed Jan 22, 7:00pm

Wed Jan 22, 6:10pm

Wed Jan 22, 6:01pm

Wed Jan 22, 5:10pm

Wed Jan 22, 5:00pm

Wed Jan 22, 4:10pm

Wed Jan 22, 4:00pm

Wed Jan 22, 3:10pm

Wed Jan 22, 3:00pm

Wed Jan 22, 2:10pm

Wed Jan 22, 2:00pm

Wed Jan 22, 1:10pm

Wed Jan 22, 1:00pm

Wed Jan 22, 12:10pm

Wed Jan 22, 12:00pm

Wed Jan 22, 11:10am

Wed Jan 22, 11:00am

Wed Jan 22, 10:10am

Wed Jan 22, 10:01am

Wed Jan 22, 9:10am

Wed Jan 22, 9:00am

Wed Jan 22, 8:10am

Wed Jan 22, 8:00am

Wed Jan 22, 7:10am

Wed Jan 22, 7:00am

Wed Jan 22, 6:10am

Wed Jan 22, 6:00am

Wed Jan 22, 5:10am

Wed Jan 22, 5:00am

Wed Jan 22, 4:10am

Wed Jan 22, 4:00am

Wed Jan 22, 3:10am

Wed Jan 22, 3:01am

Wed Jan 22, 2:10am

Wed Jan 22, 2:00am

Wed Jan 22, 1:10am

Wed Jan 22, 1:00am

Wed Jan 22, 12:10am

Wed Jan 22, 12:00am

Tue Jan 21, 11:10pm

Tue Jan 21, 11:00pm

Tue Jan 21, 10:10pm

Tue Jan 21, 10:00pm

Tue Jan 21, 9:10pm

Tue Jan 21, 9:01pm

Tue Jan 21, 8:10pm

Tue Jan 21, 8:00pm

Tue Jan 21, 7:10pm

Tue Jan 21, 7:00pm

Tue Jan 21, 6:10pm

Tue Jan 21, 6:01pm

Tue Jan 21, 5:10pm

Tue Jan 21, 5:00pm

Tue Jan 21, 4:10pm

Tue Jan 21, 4:00pm

Tue Jan 21, 3:10pm

Tue Jan 21, 3:01pm

Tue Jan 21, 2:10pm

Tue Jan 21, 2:00pm

Tue Jan 21, 1:00pm

Tue Jan 21, 12:10pm

Tue Jan 21, 12:00pm

Tue Jan 21, 11:10am

Tue Jan 21, 11:00am

Tue Jan 21, 10:10am

Tue Jan 21, 10:00am

Tue Jan 21, 9:10am

Tue Jan 21, 9:00am

Tue Jan 21, 8:10am

Tue Jan 21, 8:00am

Tue Jan 21, 7:10am

Tue Jan 21, 7:00am

Tue Jan 21, 6:10am

Tue Jan 21, 6:00am

Tue Jan 21, 5:10am

Tue Jan 21, 5:00am

Tue Jan 21, 4:10am

Tue Jan 21, 4:00am

Tue Jan 21, 3:10am

Tue Jan 21, 3:00am

Tue Jan 21, 2:10am

Tue Jan 21, 2:01am

Tue Jan 21, 1:10am

Tue Jan 21, 1:00am

Tue Jan 21, 12:10am

Tue Jan 21, 12:00am

Mon Jan 20, 11:10pm

Mon Jan 20, 11:00pm

Mon Jan 20, 10:10pm

Mon Jan 20, 10:00pm

Mon Jan 20, 9:10pm

Mon Jan 20, 9:00pm

Mon Jan 20, 8:10pm

Mon Jan 20, 8:00pm

Mon Jan 20, 7:10pm

Mon Jan 20, 7:00pm

Mon Jan 20, 6:10pm

Mon Jan 20, 6:00pm

Mon Jan 20, 5:10pm

Mon Jan 20, 5:00pm

Mon Jan 20, 4:10pm

Mon Jan 20, 4:01pm

Mon Jan 20, 3:10pm

Mon Jan 20, 3:00pm

Mon Jan 20, 2:10pm

Mon Jan 20, 2:00pm

Mon Jan 20, 1:10pm

Mon Jan 20, 1:00pm

Mon Jan 20, 12:10pm

Mon Jan 20, 12:00pm

Mon Jan 20, 11:10am

Mon Jan 20, 11:00am

Mon Jan 20, 10:10am

Mon Jan 20, 10:00am

Meta data:

ID: 4b471395-3b8e-425d-a5d8-7f27912e0f3a
Link: https://api.weather.gov/products/4b471395-3b8e-425d-a5d8-7f27912e0f3a